Location: Maccacari
(45.1333°N, 11.1333°E)
Time: 06:57:14
(UTC+00:00)

Cosmos 2082 Rocket - Pass Details

Date: 18 September 2020
Orbit: 834 x 853 km, 71.0° (Epoch: 29 October)

Event Time Altitude Azimuth Distance (km) Brightness Sun altitude
Rises 20:40:41 0° 338° (NNW) 3,391 6.2 -33.0°
Reaches altitude 10° 20:43:15 10° 344° (NNW) 2,454 5.2 -33.3°
Enters shadow 20:46:33 32° 8° (N) 1,409 3.5 -33.7°
